Regional Weather Roundup
Issued by NWS Sioux Falls, SD

Home | Current Version | Previous Version | Graphics & Text | Print | Product List | Glossary Off
Versions: 1 2 3 4 5 6 7 8 9 10 11 12 13 14 15 16 17 18 19 20 21 22 23 24 25 26 27 28 29 30 31 32 33 34 35 36 37 38 39 40 41 42 43 44 45 46 47 48 49 50

000
ASUS43 KFSD 101510
RWRFSD

WEATHER ROUNDUP FOR SE SOUTH DAKOTA/SW MINNESOTA/NW IOWA
NATIONAL WEATHER SERVICE SIOUX FALLS SD
900 AM CST SAT DEC 10 2016

NOTE: "FAIR" INDICATES FEW OR NO CLOUDS BELOW 12,000 FEET WITH NO
SIGNIFICANT WEATHER AND OR OBSTRUCTIONS TO VISIBILITY.


SDZ038>040-050-052>070-101600-
SOUTHEAST SOUTH DAKOTA

CITY           SKY/WX    TMP DP  RH WIND       PRES   REMARKS
BROOKINGS      LGT SNOW   4   0  83 E10       30.31F FOG     WCI -11
CHAMBERLAIN    CLOUDY     6   2  84 E10       30.25F FOG     WCI  -9
HURON          LGT SNOW   7   3  84 E10       30.33F VSB 1   WCI  -8
MADISON        LGT SNOW   7   7 100 SE9       30.30F WCI  -7
MITCHELL       LGT SNOW  10   7  87 E10       30.32F VSB 3/4 WCI  -4
SIOUX FALLS    LGT SNOW  11   7  84 E14       30.33F VSB 1   WCI  -5
WINNER         CLOUDY     7   2  80 E15       30.19F WCI -10
YANKTON        CLOUDY    16  12  86 E13       30.30F WCI   2
$$

MNZ071-072-080-081-089-090-097-098-101600-
SOUTHWEST MINNESOTA

CITY           SKY/WX    TMP DP  RH WIND       PRES   REMARKS
FAIRMONT       FLURRIES   7   3  84 NE7       30.44F WCI  -5
JACKSON        LGT SNOW   7   3  85 E9        30.39F WCI  -7
LUVERNE        LGT SNOW  10   5  79 E9        30.36F WCI  -2
MARSHALL       FLURRIES   2  -3  80 E5        30.43F WCI  -8
MONTEVIDEO     CLOUDY     0  -6  78 CALM      30.46F
PIPESTONE      LGT SNOW   7   3  85 SE12      30.33F WCI  -9
REDWOOD FALLS  CLOUDY     3  -3  76 E5        30.45F WCI  -6
TRACY          LGT SNOW   5   2  86 E6        30.41F WCI  -6
WINDOM         LGT SNOW   7   1  78 MISG      30.41F
WORTHINGTON    FLURRIES   7   3  84 E12       30.37F WCI  -8
$$

IAZ001>003-012>014-020>022-031-032-NEZ013-014-SDZ071-101600-
NORTHWEST IOWA

CITY           SKY/WX    TMP DP  RH WIND       PRES   REMARKS
CHEROKEE       LGT SNOW  15  13  92 E9        30.39F VSB 1   WCI   3
DENISON        SNOW      19  18  93 E5        30.36F VSB 1/4 WCI  13
ESTHERVILLE    CLOUDY     7   5  91 E9        30.41F FOG     WCI  -7
LE MARS        LGT SNOW  18  16  93 E8        30.36F WCI   7
ORANGE CITY    LGT SNOW  14  12  92 E9        30.35F WCI   2
SHELDON        LGT SNOW  10   9  92 E15       30.36S WCI  -6
SIOUX CITY     LGT SNOW  21  17  84 E10       30.34F FOG     WCI  10
SPENCER        CLOUDY    11   7  84 E7        30.39F FOG     WCI   0
STORM LAKE     LGT SNOW  14  12  92 E13       30.38S WCI   0
$$

ABBREVIATIONS USED IN REMARKS
   TC - TEMPERATURE IN CELSIUS
  WCI - WIND CHILL INDEX
   HX - HEAT INDEX
  VSB - VISIBILITY




USA.gov is the U.S. government's official web portal to all federal, state and local government web resources and services.